Weather History for Sitka, AK

Change the Weather History Date:

Tuesday, March 26, 2013

  Actual Average Record
Temperature  
Mean Temperature 37 °F -  
Max Temperature 39 °F 43 °F 51 °F (1961)
Min Temperature 35 °F 33 °F 11 °F (1967)
Degree Days  
Heating Degree Days 28    
Moisture  
Dew Point 28 °F    
Average Humidity 70    
Maximum Humidity 87    
Minimum Humidity 55    
Precipitation  
Precipitation 0.01 in - - ()
Sea Level Pressure  
Sea Level Pressure 30.08 in    
Wind  
Wind Speed 10 mph (WSW)    
Max Wind Speed 17 mph    
Max Gust Speed 16 mph    
Visibility 10 miles    
Events Rain    
Averages and records for this station are not official NWS values.
T = Trace of Precipitation, MM = Missing Value Source: NWS Daily Summary

Daily Weather History Graph

Daily Weather History Graph

Search for Another Location

Airport:

Trip Planner

Search our weather history database for the weather conditions in past years. The results will help you decide how hot, cold, wet, or windy it might be!

Date:

Astronomy

Mar. 26, 2013 Rise Set
Actual Time 6:45 AM AKDT 7:29 PM AKDT
Civil Twilight 6:07 AM AKDT 8:07 PM AKDT
Nautical Twilight 5:20 AM AKDT 8:54 PM AKDT
Astronomical Twilight 4:29 AM AKDT 9:46 PM AKDT
Moon 7:19 PM AKDT (3/26) 6:08 AM AKDT (3/26)
Length of Visible Light 14h 00m
Length of Day
12h 43m
Full, 100% of the Moon is Illuminated
Mar 26
Full
Mar 27
Full
Apr 2
Last Quarter
Apr 10
New
Apr 18
First Quarter

Hourly Weather History & Observations

Time (AKDT) Temp. Windchill Dew Point Humidity Pressure Visibility Wind Dir Wind Speed Gust Speed Precip Events Conditions
12:53 AM 39.0 °F 32.3 °F 35.1 °F 86% 29.95 in 10.0 mi South 10.4 mph 16.1 mph 0.00 in Rain Light Rain
1:20 AM 37.4 °F 28.2 °F 33.8 °F 87% 29.96 in 10.0 mi West 16.1 mph - 0.00 in Rain Light Rain
1:36 AM 37.4 °F 30.8 °F 33.8 °F 87% 29.97 in 10.0 mi WSW 9.2 mph - 0.00 in Rain Light Rain
1:53 AM 37.9 °F 30.5 °F 34.0 °F 86% 29.97 in 10.0 mi WSW 11.5 mph - 0.00 in Rain Light Rain
2:53 AM 37.9 °F 28.5 °F 28.0 °F 68% 29.99 in 10.0 mi West 17.3 mph - 0.00 in   Overcast
3:53 AM 37.9 °F 29.6 °F 25.0 °F 60% 29.99 in 10.0 mi WSW 13.8 mph - 0.01 in   Overcast
4:53 AM 37.9 °F 31.5 °F 26.1 °F 62% 30.00 in 10.0 mi WSW 9.2 mph - 0.00 in   Overcast
5:53 AM 36.0 °F 28.5 °F 30.0 °F 79% 30.02 in 7.0 mi West 10.4 mph 16.1 mph 0.00 in   Overcast
6:53 AM 36.0 °F 32.1 °F 28.9 °F 76% 30.03 in 10.0 mi WSW 4.6 mph - 0.00 in   Overcast
7:53 AM 36.0 °F - 30.9 °F 82% 30.04 in 10.0 mi Calm Calm - N/A   Overcast
8:53 AM 37.0 °F 29.3 °F 27.0 °F 67% 30.05 in 10.0 mi West 11.5 mph - 0.00 in   Overcast
9:53 AM 37.9 °F 30.9 °F 26.1 °F 62% 30.07 in 10.0 mi West 10.4 mph - N/A   Overcast
10:53 AM 37.9 °F 30.9 °F 23.0 °F 55% 30.09 in 10.0 mi WSW 10.4 mph - N/A   Overcast
11:53 AM 37.9 °F 32.7 °F 26.1 °F 62% 30.10 in 10.0 mi West 6.9 mph - 0.00 in   Overcast
12:53 PM 39.0 °F 32.3 °F 28.0 °F 65% 30.12 in 10.0 mi West 10.4 mph - 0.00 in   Overcast
1:53 PM 37.9 °F 30.9 °F 28.0 °F 68% 30.14 in 10.0 mi West 10.4 mph - 0.00 in Rain Light Rain
2:53 PM 39.0 °F 35.7 °F 28.0 °F 65% 30.14 in 10.0 mi NW 4.6 mph - 0.00 in   Overcast
3:53 PM 39.0 °F 32.8 °F 28.0 °F 65% 30.14 in 10.0 mi WSW 9.2 mph - N/A   Overcast
4:53 PM 39.0 °F 34.0 °F 27.0 °F 62% 30.16 in 10.0 mi West 6.9 mph - N/A   Overcast
5:53 PM 39.0 °F 33.4 °F 26.1 °F 60% 30.16 in 10.0 mi West 8.1 mph - N/A   Overcast
6:53 PM 39.0 °F 32.8 °F 27.0 °F 62% 30.15 in 10.0 mi West 9.2 mph - N/A   Overcast
7:53 PM 37.9 °F 33.5 °F 26.1 °F 62% 30.16 in 10.0 mi West 5.8 mph - N/A   Overcast
8:53 PM 37.0 °F - 27.0 °F 67% 30.17 in 10.0 mi Calm Calm - N/A   Overcast
9:53 PM 36.0 °F 31.1 °F 28.9 °F 76% 30.17 in 10.0 mi East 5.8 mph - N/A   Overcast
10:53 PM 35.1 °F 31.0 °F 28.9 °F 78% 30.18 in 10.0 mi East 4.6 mph - N/A   Overcast
11:53 PM 35.1 °F 31.0 °F 30.0 °F 82% 30.18 in 10.0 mi East 4.6 mph - N/A   Overcast